Overview Statistics Trail Chart Weather Telemetry Raw packets
 

This is the latest recevied weather packets stored in our database for station/object JA7ZQY-10. If no packets are shown the sender has not sent any weather packets the latest 10 day(s).

<< 17 18 19 20 21 22 23 >>
Time Temp. Humidity Pressure Rain* Wind** Luminosity Snow
1788308769 22.78° C 99% 1013.2 hPa 0 mm - - -
1788308168 22.78° C 99% 1013.4 hPa 0 mm - - -
1788307567 22.78° C 99% 1013.3 hPa 0 mm - - -
1788306969 22.78° C 99% 1013.2 hPa 0 mm - - -
1788306368 22.78° C 99% 1013.2 hPa 0 mm - - -
1788305768 22.78° C 99% 1013.1 hPa 0 mm - - -
1788305169 22.78° C 99% 1013.3 hPa 0 mm - - -
1788304568 22.22° C 99% 1012.9 hPa 0 mm - - -
1788303968 22.22° C 99% 1013 hPa 0 mm - - -
1788303369 22.22° C 99% 1013.1 hPa 0 mm - - -
1788302768 22.22° C 99% 1012.8 hPa 0 mm - - -
1788302169 22.22° C 99% 1013.1 hPa 0 mm - - -
1788301570 21.67° C 99% 1013.1 hPa 0 mm - - -
1788300968 21.67° C 99% 1012.9 hPa 0.51 mm - - -
1788300369 21.67° C 99% 1012.6 hPa 0.76 mm - - -
1788299768 21.67° C 99% 1012.8 hPa 0.76 mm - - -
1788299168 21.67° C 99% 1012.8 hPa 1.27 mm - - -
1788298570 21.67° C 99% 1012.9 hPa 2.79 mm - - -
1788297969 21.67° C 99% 1012.7 hPa 5.84 mm - - -
1788297368 21.67° C 99% 1012.7 hPa 6.1 mm - - -
1788296770 21.67° C 99% 1012.8 hPa 10.92 mm - - -
1788296167 21.67° C 99% 1012.9 hPa 16 mm - - -
1788295569 21.67° C 99% 1012.8 hPa 19.3 mm - - -
1788294968 21.67° C 99% 1012.5 hPa 20.07 mm - - -
1788294369 21.67° C 99% 1012.3 hPa 17.78 mm - - -

* Rain latest hour (hover to see other rain measurements)
** Current wind speed in m/s (hover to see current wind gust speed)